Date String (YYYY-MM-DD hh:mm:ss) UTC,Instrument flags,Ambient pressure (hPa),Sample flow (lpm),Bypass flow (lpm),Sample temperature (°C),Ambient temperature (°C),ASC tube jacket temperature (°C),LED temperature (°C),Box temperature (°C),Sample RH (%),Span deviation,Mass concentration (μg/m³),Mass concentration (μg/m³),Mass concentration (μg/m³)
DateTimeUTC,F1_M11,P_M11,Q1_M11,Q2_M11,T1_M11,T2_M11,T3_M11,T4_M11,T5_M11,U1_M11,ZSPAN_M11,X0_M11,X2_M11,X1_M11
2021-10-18 01:00:00,,0824.9,5.00,0.00,29.9,29.0,00.0,38.9,31.8,10.4,-001.4,0011.86,0005.90,0005.17
2021-10-18 01:01:00,,0824.9,5.01,0.00,30.0,29.0,00.0,38.9,31.8,10.3,-001.5,0012.19,0005.89,0005.11
2021-10-18 01:02:00,,0824.9,4.99,0.00,30.0,29.1,00.0,38.9,31.8,10.3,-001.2,0012.73,0005.84,0005.05
2021-10-18 01:03:00,,0824.9,5.00,0.00,30.0,29.1,00.0,38.9,31.9,10.3,-001.3,0011.90,0005.76,0005.00
2021-10-18 01:04:00,,0824.9,5.00,0.00,30.0,29.2,00.0,39.0,31.9,10.3,-001.6,0011.61,0005.72,0004.93
2021-10-18 01:05:00,,0824.9,5.00,0.00,30.1,29.2,00.0,39.0,31.9,10.2,-002.0,0011.77,0005.60,0004.82
2021-10-18 01:06:00,,0824.9,5.00,0.00,30.1,29.3,00.0,39.0,31.9,10.2,-001.6,0012.24,0005.54,0004.72
2021-10-18 01:07:00,,0825.0,5.00,0.00,30.1,29.3,00.0,39.0,31.9,10.2,-001.1,0011.61,0005.39,0004.61
2021-10-18 01:08:00,,0825.0,4.99,0.00,30.1,28.4,00.0,39.0,31.7,10.2,-001.4,0011.82,0005.28,0004.48
2021-10-18 01:09:00,,0824.9,5.00,0.00,29.9,26.3,00.0,39.0,31.1,10.2,-001.0,0012.70,0005.20,0004.37
2021-10-18 01:10:00,,0825.0,5.00,0.00,29.8,26.0,00.0,39.0,31.0,10.3,-000.0,0013.07,0005.13,0004.29
2021-10-18 01:11:00,,0825.0,5.01,0.00,29.7,26.4,00.0,38.9,31.0,10.3,0000.0,0013.08,0005.05,0004.19
2021-10-18 01:12:00,,0825.0,5.00,0.00,29.6,26.8,00.0,38.9,31.1,10.4,0000.0,0012.60,0004.93,0004.08
2021-10-18 01:13:00,,0825.1,4.99,0.00,29.6,27.2,00.0,38.8,31.2,10.4,0000.0,0012.08,0004.79,0003.96
2021-10-18 01:14:00,,0825.0,5.01,0.00,29.6,27.6,00.0,38.8,31.3,10.4,0000.0,0012.11,0004.71,0003.88
2021-10-18 01:15:00,,0825.0,4.98,0.00,29.6,27.9,00.0,38.8,31.4,10.4,0000.0,0012.00,0004.62,0003.82
2021-10-18 01:16:00,,0825.0,5.00,0.00,29.7,28.1,00.0,38.8,31.4,10.3,0000.0,0011.60,0004.60,0003.82
2021-10-18 01:17:00,,0825.0,5.02,0.00,29.7,28.2,00.0,38.8,31.4,10.3,0000.0,0011.23,0004.62,0003.84
2021-10-18 01:18:00,,0825.1,5.00,0.00,29.7,28.4,00.0,38.8,31.4,10.3,0000.0,0011.27,0004.62,0003.86
2021-10-18 01:19:00,,0825.1,5.00,0.00,29.7,28.5,00.0,38.8,31.5,10.3,0000.0,0011.56,0004.65,0003.90
2021-10-18 01:20:00,,0825.1,4.99,0.00,29.7,28.6,00.0,38.8,31.5,10.3,0000.0,0010.91,0004.71,0003.95
2021-10-18 01:21:00,,0825.1,5.00,0.00,29.8,28.7,00.0,38.8,31.6,10.3,-001.2,0010.56,0004.78,0004.01
2021-10-18 01:22:00,,0825.1,5.01,0.00,29.8,28.8,00.0,38.8,31.6,10.2,-001.6,0010.47,0004.84,0004.06
2021-10-18 01:23:00,,0825.0,5.02,0.00,29.8,28.8,00.0,38.8,31.6,10.2,-001.2,0010.47,0004.88,0004.12
2021-10-18 01:24:00,,0825.0,5.00,0.00,29.8,28.9,00.0,38.8,31.7,10.2,-000.4,0010.52,0004.94,0004.19
2021-10-18 01:25:00,,0825.0,5.00,0.00,29.9,28.9,00.0,38.9,31.7,10.1,-001.1,0010.46,0005.04,0004.25
2021-10-18 01:26:00,,0825.0,5.00,0.00,29.9,29.0,00.0,38.9,31.7,10.1,-001.1,0010.41,0005.11,0004.29
2021-10-18 01:27:00,,0825.0,5.00,0.00,29.9,29.0,00.0,38.9,31.7,10.1,-000.7,0010.57,0005.17,0004.29
2021-10-18 01:28:00,,0825.0,5.00,0.00,29.9,29.0,00.0,38.9,31.8,10.1,-001.3,0010.79,0005.21,0004.32
2021-10-18 01:29:00,,0825.0,4.99,0.00,30.0,29.1,00.0,38.9,31.8,10.1,-001.1,0011.25,0005.27,0004.36
2021-10-18 01:30:00,,0825.0,5.01,0.00,30.0,29.1,00.0,38.9,31.8,10.0,-000.0,0011.10,0005.36,0004.42
2021-10-18 01:31:00,,0825.0,5.00,0.00,30.0,29.2,00.0,39.0,31.8,10.0,0000.7,0012.64,0005.39,0004.47
2021-10-18 01:32:00,,0825.0,4.99,0.00,30.0,29.2,00.0,39.0,31.8,09.9,0001.6,0012.65,0005.44,0004.51
2021-10-18 01:33:00,,0825.0,5.01,0.00,30.0,29.2,00.0,39.0,31.8,09.9,0003.0,0012.97,0005.44,0004.52
2021-10-18 01:34:00,,0825.0,4.99,0.00,30.1,29.2,00.0,39.0,31.9,09.8,0003.0,0013.32,0005.42,0004.49
2021-10-18 01:35:00,,0824.9,5.01,0.00,30.1,29.2,00.0,39.0,31.9,09.8,0003.6,0013.13,0005.39,0004.45
2021-10-18 01:36:00,,0825.0,5.00,0.00,30.1,29.2,00.0,39.0,31.9,09.7,0004.7,0013.00,0005.34,0004.42
2021-10-18 01:37:00,,0825.0,5.00,0.00,30.1,29.2,00.0,39.1,31.9,09.7,0004.5,0013.14,0005.27,0004.38
2021-10-18 01:38:00,,0825.0,5.01,0.00,30.1,29.2,00.0,39.1,31.9,09.7,0003.9,0013.59,0005.24,0004.37
2021-10-18 01:39:00,,0825.0,4.98,0.00,30.2,29.2,00.0,39.1,32.0,09.7,0003.3,0014.26,0005.16,0004.35
2021-10-18 01:40:00,,0825.0,5.00,0.00,30.2,29.2,00.0,39.1,32.0,09.7,0002.5,0013.62,0005.11,0004.31
2021-10-18 01:41:00,,0825.0,5.01,0.00,30.2,28.5,00.0,39.1,31.8,09.7,0000.3,0014.03,0005.06,0004.28
2021-10-18 01:42:00,,0825.0,5.00,0.00,30.0,26.3,00.0,39.1,31.2,09.8,-000.2,0012.85,0005.03,0004.25
2021-10-18 01:43:00,,0825.0,5.01,0.00,29.8,26.0,00.0,39.1,31.1,09.8,-001.9,0012.31,0004.97,0004.19
2021-10-18 01:44:00,,0825.0,4.99,0.00,29.7,26.3,00.0,39.0,31.2,09.9,-001.8,0012.58,0004.92,0004.13
2021-10-18 01:45:00,,0825.1,5.01,0.00,29.7,26.8,00.0,39.0,31.2,09.9,0000.1,0012.97,0004.93,0004.14
2021-10-18 01:46:00,,0825.1,5.00,0.00,29.7,27.2,00.0,38.9,31.3,09.9,-000.5,0013.08,0004.99,0004.16
2021-10-18 01:47:00,,0825.0,5.00,0.00,29.7,27.5,00.0,38.9,31.3,09.8,0000.2,0013.37,0004.95,0004.14
2021-10-18 01:48:00,,0825.1,5.01,0.00,29.7,27.8,00.0,38.9,31.4,09.9,0000.1,0013.10,0004.90,0004.13
2021-10-18 01:49:00,,0825.1,4.99,0.00,29.7,28.0,00.0,38.8,31.4,09.8,-000.5,0012.89,0004.85,0004.10
2021-10-18 01:50:00,,0825.1,4.99,0.00,29.7,28.2,00.0,38.8,31.4,09.9,0000.3,0012.14,0004.83,0004.06
2021-10-18 01:51:00,,0825.1,5.01,0.00,29.7,28.3,00.0,38.8,31.5,09.9,0001.5,0012.48,0004.86,0004.04
2021-10-18 01:52:00,,0825.1,4.99,0.00,29.7,28.4,00.0,38.8,31.5,09.8,0001.7,0012.18,0004.84,0004.01
2021-10-18 01:53:00,,0825.1,5.00,0.00,29.7,28.5,00.0,38.8,31.5,09.8,0001.3,0011.76,0004.80,0003.95
2021-10-18 01:54:00,,0825.1,5.00,0.00,29.8,28.6,00.0,38.8,31.5,09.8,0004.3,0011.93,0004.77,0003.93
2021-10-18 01:55:00,,0825.1,4.99,0.00,29.8,28.7,00.0,38.8,31.6,09.9,0006.5,0011.59,0004.75,0003.93
2021-10-18 01:56:00,,0825.1,5.01,0.00,29.8,28.7,00.0,38.9,31.6,09.7,-000.5,0010.73,0004.68,0003.89
2021-10-18 01:57:00,,0825.1,5.00,0.00,29.8,28.8,00.0,38.9,31.6,09.6,0000.1,0010.14,0004.59,0003.85
2021-10-18 01:58:00,,0825.1,5.00,0.00,29.8,28.9,00.0,38.9,31.6,09.6,-000.1,0009.67,0004.56,0003.83
2021-10-18 01:59:00,,0825.1,5.00,0.00,29.9,28.9,00.0,38.9,31.7,09.5,0000.9,0009.65,0004.59,0003.81
